, AK

(GMT )
Denali Park

Weather History for PAIN - January, 2013

Change the Weather History Date:

Tuesday, January 22, 2013

  Actual Average Record
Temperature  
Mean Temperature -2 °F -  
Max Temperature 5 °F 12 °F 46 °F (2014)
Min Temperature -9 °F -4 °F -43 °F (1973)
Degree Days  
Heating Degree Days 67    
Moisture  
Dew Point -8 °F    
Average Humidity 88    
Maximum Humidity 92    
Minimum Humidity 84    
Precipitation  
Precipitation 0.00 in - - ()
Sea Level Pressure  
Sea Level Pressure 29.66 in    
Wind  
Wind Speed 0 mph (NNE)    
Max Wind Speed 5 mph    
Max Gust Speed -    
Visibility 10 miles    
Events      
Averages and records for this station are not official NWS values.
T = Trace of Precipitation, MM = Missing Value Source: NWS Daily Summary

Daily Weather History Graph

Daily Weather History Graph

Search for Another Location

Airport or City:

Trip Planner

Search our weather history database for the weather conditions in past years. The results will help you decide how hot, cold, wet, or windy it might be!

Date:

Astronomy

Jan. 22, 2013 Rise Set
Actual Time 9:59 AM AKST 4:15 PM AKST
Civil Twilight 8:58 AM AKST 5:16 PM AKST
Nautical Twilight 7:58 AM AKST 6:17 PM AKST
Astronomical Twilight 7:02 AM AKST 7:13 PM AKST
Moon 12:23 PM AKST (1/22) 6:50 AM AKST (1/22)
Length of Visible Light 8h 18m
Length of Day
6h 16m
Waxing Gibbous, 84% of the Moon is Illuminated
Jan 22
Waxing Gibbous
Jan 26
Full
Feb 3
Last Quarter
Feb 9
New
Feb 17
First Quarter

Hourly Weather History & Observations

Time (AKST) Temp. Windchill Dew Point Humidity Pressure Visibility Wind Dir Wind Speed Gust Speed Precip Events Conditions
12:16 AM -9.4 °F - -11.2 °F 92% 29.78 in 10.0 mi Calm Calm - N/A   Partly Cloudy
12:36 AM -7.6 °F - -11.2 °F 84% 29.78 in 10.0 mi Calm Calm - N/A   Partly Cloudy
12:56 AM -7.6 °F - -11.2 °F 84% 29.78 in 10.0 mi Calm Calm - N/A   Scattered Clouds
1:16 AM -7.6 °F - -11.2 °F 84% 29.77 in 10.0 mi Calm Calm - N/A   Partly Cloudy
1:36 AM -7.6 °F - -9.4 °F 92% 29.77 in 10.0 mi Calm Calm - N/A   Scattered Clouds
1:56 AM -7.6 °F - -11.2 °F 84% 29.76 in 10.0 mi Calm Calm - N/A   Partly Cloudy
2:16 AM -7.6 °F - -11.2 °F 84% 29.76 in 10.0 mi Calm Calm - N/A   Clear
2:36 AM -7.6 °F - - N/A% 29.75 in 10.0 mi Calm Calm - N/A   Clear
2:56 AM -7.6 °F - -11.2 °F 84% 29.74 in 10.0 mi Calm Calm - N/A   Clear
3:16 AM -9.4 °F - -11.2 °F 92% 29.74 in 10.0 mi Calm Calm - N/A   Clear
3:36 AM -7.6 °F - -11.2 °F 84% 29.73 in 10.0 mi Calm Calm - N/A   Clear
3:56 AM -7.6 °F - - N/A% 29.73 in 10.0 mi Calm Calm - N/A   Clear
4:16 AM -7.6 °F - -9.4 °F 92% 29.72 in 10.0 mi Calm Calm - N/A   Clear
4:36 AM -7.6 °F - -9.4 °F 92% 29.72 in 10.0 mi Calm Calm - N/A   Clear
4:56 AM -5.8 °F - -7.6 °F 92% 29.72 in 10.0 mi Calm Calm - N/A   Clear
5:16 AM -4.0 °F -12.4 °F -5.8 °F 92% 29.72 in 10.0 mi North 3.5 mph - N/A   Clear
5:36 AM -2.2 °F -12.5 °F -4.0 °F 92% 29.71 in 10.0 mi NNE 4.6 mph - N/A   Clear
5:56 AM -2.2 °F -10.4 °F -5.8 °F 85% 29.71 in 10.0 mi North 3.5 mph - N/A   Clear
6:16 AM -2.2 °F -10.4 °F -5.8 °F 85% 29.71 in 10.0 mi NNE 3.5 mph - N/A   Clear
6:56 AM -4.0 °F - -7.6 °F 85% 29.70 in 10.0 mi Calm Calm - N/A   Clear
7:16 AM -4.0 °F - -7.6 °F 85% 29.70 in 10.0 mi Calm Calm - N/A   Clear
7:36 AM -4.0 °F -12.4 °F -5.8 °F 92% 29.70 in 10.0 mi North 3.5 mph - N/A   Clear
7:56 AM -4.0 °F - -7.6 °F 85% 29.70 in 10.0 mi Calm Calm - N/A   Clear
8:16 AM -4.0 °F - -7.6 °F 85% 29.70 in 10.0 mi Calm Calm - N/A   Clear
8:36 AM -5.8 °F - -9.4 °F 84% 29.70 in 10.0 mi Calm Calm - N/A   Clear
8:56 AM -5.8 °F - -9.4 °F 84% 29.69 in 10.0 mi Calm Calm - N/A   Clear
9:16 AM -7.6 °F - -9.4 °F 92% 29.69 in 10.0 mi Calm Calm - N/A   Clear
9:36 AM -7.6 °F - -11.2 °F 84% 29.69 in 10.0 mi Calm Calm - N/A   Clear
9:56 AM -7.6 °F - - N/A% 29.69 in 10.0 mi Calm Calm - N/A   Clear
10:16 AM -7.6 °F - -11.2 °F 84% 29.68 in 10.0 mi Calm Calm - N/A   Clear
10:36 AM -9.4 °F - -11.2 °F 92% 29.68 in 10.0 mi Calm Calm - N/A   Clear
10:56 AM -7.6 °F - - N/A% 29.68 in 10.0 mi Calm Calm - N/A   Clear
11:16 AM -7.6 °F - -11.2 °F 84% 29.68 in 10.0 mi Calm Calm - N/A   Clear
11:36 AM -7.6 °F - -9.4 °F 92% 29.68 in 10.0 mi Calm Calm - N/A   Partly Cloudy
11:56 AM -7.6 °F - -9.4 °F 92% 29.67 in 10.0 mi Calm Calm - N/A   Scattered Clouds
12:16 PM -5.8 °F - -7.6 °F 92% 29.66 in 10.0 mi Calm Calm - N/A   Overcast
12:36 PM -2.2 °F - -5.8 °F 85% 29.66 in 10.0 mi Calm Calm - N/A   Scattered Clouds
12:56 PM -0.4 °F - -4.0 °F 85% 29.65 in 10.0 mi Calm Calm - N/A   Partly Cloudy
1:16 PM -0.4 °F - -2.2 °F 92% 29.65 in 10.0 mi Calm Calm - N/A   Partly Cloudy
1:36 PM -0.4 °F - -4.0 °F 85% 29.64 in 10.0 mi Calm Calm - N/A   Partly Cloudy
1:56 PM -0.4 °F - -2.2 °F 92% 29.64 in 10.0 mi Calm Calm - N/A   Mostly Cloudy
2:16 PM 3.2 °F - -0.4 °F 85% 29.63 in 10.0 mi Calm Calm - N/A   Mostly Cloudy
2:36 PM 5.0 °F - 1.4 °F 85% 29.62 in 10.0 mi Calm Calm - N/A   Clear
2:56 PM 3.2 °F - -0.4 °F 85% 29.62 in 10.0 mi Calm Calm - N/A   Clear
3:16 PM -0.4 °F - -4.0 °F 85% 29.62 in 10.0 mi Calm Calm - N/A   Clear
3:36 PM -2.2 °F - -5.8 °F 85% 29.61 in 10.0 mi Calm Calm - N/A   Clear
3:56 PM -2.2 °F - -5.8 °F 85% 29.60 in 10.0 mi Calm Calm - N/A   Clear
4:16 PM -2.2 °F - -5.8 °F 85% 29.60 in 10.0 mi Calm Calm - N/A   Clear
4:36 PM -4.0 °F - -5.8 °F 92% 29.60 in 10.0 mi Calm Calm - N/A   Clear
4:56 PM -4.0 °F - -5.8 °F 92% 29.60 in 10.0 mi Calm Calm - N/A   Clear
5:16 PM -2.2 °F - -5.8 °F 85% 29.60 in 10.0 mi Calm Calm - N/A   Clear
5:36 PM -2.2 °F - -5.8 °F 85% 29.59 in 10.0 mi Calm Calm - N/A   Clear
5:56 PM -2.2 °F - -5.8 °F 85% 29.59 in 10.0 mi Calm Calm - N/A   Clear
6:16 PM -4.0 °F - -7.6 °F 85% 29.59 in 10.0 mi Calm Calm - N/A   Clear
6:36 PM -5.8 °F - -9.4 °F 84% 29.58 in 10.0 mi Calm Calm - N/A   Clear
6:56 PM -5.8 °F - -7.6 °F 92% 29.58 in 10.0 mi Calm Calm - N/A   Clear
7:16 PM -5.8 °F - -9.4 °F 84% 29.58 in 10.0 mi Calm Calm - N/A   Clear
7:36 PM -5.8 °F - -9.4 °F 84% 29.58 in 10.0 mi Calm Calm - N/A   Clear
7:56 PM -7.6 °F - -9.4 °F 92% 29.58 in 10.0 mi Calm Calm - N/A   Clear
8:16 PM -7.6 °F - -9.4 °F 92% 29.57 in 10.0 mi Calm Calm - N/A   Clear
8:36 PM -7.6 °F - -9.4 °F 92% 29.57 in 10.0 mi Calm Calm - N/A   Clear
8:56 PM -7.6 °F - -9.4 °F 92% 29.57 in 10.0 mi Calm Calm - N/A   Partly Cloudy
9:16 PM -5.8 °F - -9.4 °F 84% 29.57 in 10.0 mi Calm Calm - N/A   Scattered Clouds
9:36 PM -7.6 °F - -9.4 °F 92% 29.56 in 10.0 mi Calm Calm - N/A   Partly Cloudy
9:56 PM -7.6 °F - -9.4 °F 92% 29.56 in 10.0 mi Calm Calm - N/A   Clear
10:16 PM -7.6 °F - -11.2 °F 84% 29.56 in 10.0 mi Calm Calm - N/A   Clear
10:36 PM -7.6 °F - -11.2 °F 84% 29.56 in 10.0 mi Calm Calm - N/A   Clear
10:56 PM -9.4 °F - -11.2 °F 92% 29.56 in 10.0 mi Calm Calm - N/A   Clear
11:16 PM -9.4 °F - -11.2 °F 92% 29.56 in 10.0 mi Calm Calm - N/A   Clear
11:36 PM -9.4 °F - -11.2 °F 92% 29.56 in 10.0 mi Calm Calm - N/A   Clear
11:56 PM -9.4 °F - -13.0 °F 84% 29.55 in 10.0 mi Calm Calm - N/A   Clear